When you browse on this site, cookies collect data to enhance your experience and personalize the content and advertising you see.
Visit our Privacy Policy to learn more. By continuing to use the site, you agree to this use of cookies and data.
  • In Slovakia
  • List of Countries
  • For 7 days
  • Water Temperature
  • Satellite Maps
  • Weather Map
  • Weather Widgets
  • user-avatar
    Login

    Hourly Weather Abovyan

    Today, 23 March, Saturday

    Time Temperature Precipitation Wind Pressure Humidity
    00:00 +4°C° 0 mm 1 mps 672 mmHg 52%
    01:00 +3°C° 0 mm 1 mps 672 mmHg 53%
    02:00 +3°C° 0 mm 1 mps 672 mmHg 55%
    03:00 +3°C° 0 mm 1 mps 672 mmHg 56%
    04:00 +2°C° 0 mm 1 mps 672 mmHg 58%
    05:00 +2°C° 0 mm 1 mps 671 mmHg 60%
    06:00 +2°C° 0 mm 1 mps 671 mmHg 61%
    07:00 +3°C° 0 mm 1 mps 671 mmHg 57%
    08:00 +4°C° 0 mm 2 mps 671 mmHg 53%
    09:00 +5°C° 0 mm 2 mps 671 mmHg 49%
    10:00 +6°C° 0 mm 2 mps 670 mmHg 47%
    11:00 +7°C° 0 mm 3 mps 670 mmHg 45%
    12:00 +8°C° 0 mm 3 mps 669 mmHg 42%
    13:00 +8°C° 0.1 mm 3 mps 669 mmHg 43%
    14:00 +9°C° 0.1 mm 3 mps 668 mmHg 43%
    15:00 +9°C° 0.1 mm 3 mps 668 mmHg 43%
    16:00 +8°C° 0.1 mm 3 mps 668 mmHg 45%
    17:00 +8°C° 0.1 mm 3 mps 667 mmHg 48%
    18:00 +7°C° 0.1 mm 3 mps 667 mmHg 50%
    19:00 +7°C° 0.1 mm 3 mps 667 mmHg 50%
    20:00 +6°C° 0.1 mm 2 mps 667 mmHg 51%
    21:00 +5°C° 0.1 mm 2 mps 667 mmHg 52%
    22:00 +5°C° 0.1 mm 2 mps 667 mmHg 53%
    23:00 +5°C° 0.1 mm 2 mps 667 mmHg 53%

    Tomorrow, 24 March, Sunday

    Time Temperature Precipitation Wind Pressure Humidity
    00:00 +5°C° 0.1 mm 2 mps 667 mmHg 53%
    01:00 +5°C° 0.2 mm 2 mps 666 mmHg 56%
    02:00 +5°C° 0.2 mm 2 mps 666 mmHg 59%
    03:00 +4°C° 0.2 mm 2 mps 666 mmHg 62%
    04:00 +4°C° 0.4 mm 2 mps 665 mmHg 64%
    05:00 +4°C° 0.4 mm 2 mps 665 mmHg 66%
    06:00 +4°C° 0.4 mm 2 mps 665 mmHg 68%
    07:00 +5°C° 0.3 mm 2 mps 665 mmHg 65%
    08:00 +5°C° 0.3 mm 3 mps 665 mmHg 63%
    09:00 +7°C° 0.3 mm 3 mps 665 mmHg 60%
    10:00 +8°C° 0.5 mm 3 mps 664 mmHg 59%
    11:00 +8°C° 0.5 mm 3 mps 664 mmHg 57%
    12:00 +9°C° 0.5 mm 2 mps 664 mmHg 56%
    13:00 +9°C° 0.7 mm 2 mps 664 mmHg 56%
    14:00 +10°C° 0.7 mm 2 mps 663 mmHg 57%
    15:00 +10°C° 0.7 mm 2 mps 663 mmHg 58%
    16:00 +9°C° 1.4 mm 3 mps 663 mmHg 62%
    17:00 +8°C° 1.4 mm 3 mps 664 mmHg 66%
    18:00 +5°C° 1.4 mm 4 mps 664 mmHg 69%
    19:00 +5°C° 0.8 mm 3 mps 665 mmHg 70%
    20:00 +4°C° 0.8 mm 3 mps 665 mmHg 70%
    21:00 +4°C° 0.8 mm 3 mps 666 mmHg 70%
    22:00 +3°C° 0.3 mm 3 mps 666 mmHg 70%
    23:00 +3°C° 0.3 mm 3 mps 666 mmHg 70%

    Day after tomorrow, 25 March, Monday

    Time Temperature Precipitation Wind Pressure Humidity
    00:00 +3°C° 0.3 mm 3 mps 666 mmHg 70%
    01:00 +3°C° 0 mm 2 mps 666 mmHg 69%
    02:00 +3°C° 0 mm 2 mps 666 mmHg 68%
    03:00 +3°C° 0 mm 2 mps 666 mmHg 67%
    04:00 +2°C° 0 mm 2 mps 666 mmHg 67%
    05:00 +2°C° 0 mm 2 mps 666 mmHg 68%
    06:00 +2°C° 0 mm 2 mps 666 mmHg 68%
    07:00 +3°C° 0 mm 2 mps 666 mmHg 64%
    08:00 +5°C° 0 mm 2 mps 666 mmHg 61%
    09:00 +6°C° 0 mm 2 mps 666 mmHg 57%
    10:00 +8°C° 0 mm 2 mps 666 mmHg 56%
    11:00 +9°C° 0 mm 2 mps 666 mmHg 55%
    12:00 +10°C° 0 mm 2 mps 665 mmHg 53%
    13:00 +10°C° 0 mm 2 mps 665 mmHg 53%
    14:00 +11°C° 0 mm 3 mps 664 mmHg 52%
    15:00 +11°C° 0 mm 3 mps 664 mmHg 52%
    16:00 +10°C° 0 mm 3 mps 664 mmHg 53%
    17:00 +9°C° 0 mm 3 mps 664 mmHg 55%
    18:00 +8°C° 0 mm 4 mps 664 mmHg 56%
    19:00 +7°C° 0 mm 4 mps 665 mmHg 58%
    20:00 +6°C° 0 mm 4 mps 665 mmHg 60%
    21:00 +5°C° 0 mm 4 mps 666 mmHg 62%
    22:00 +5°C° 0.1 mm 3 mps 666 mmHg 63%
    23:00 +5°C° 0.1 mm 3 mps 666 mmHg 64%

    26 March, Tuesday

    Time Temperature Precipitation Wind Pressure Humidity
    00:00 +4°C° 0.1 mm 3 mps 666 mmHg 65%
    01:00 +5°C° 0.1 mm 2 mps 666 mmHg 66%
    02:00 +5°C° 0.1 mm 2 mps 666 mmHg 66%
    03:00 +5°C° 0.1 mm 2 mps 666 mmHg 67%
    04:00 +4°C° 0.1 mm 2 mps 666 mmHg 68%
    05:00 +4°C° 0.1 mm 2 mps 666 mmHg 68%
    06:00 +4°C° 0.1 mm 2 mps 666 mmHg 68%
    07:00 +6°C° 0.1 mm 1 mps 666 mmHg 65%
    08:00 +7°C° 0.1 mm 1 mps 667 mmHg 61%
    09:00 +8°C° 0.1 mm 1 mps 667 mmHg 57%
    10:00 +9°C° 0.2 mm 1 mps 667 mmHg 55%
    11:00 +10°C° 0.2 mm 1 mps 667 mmHg 54%
    12:00 +10°C° 0.2 mm 0 mps 666 mmHg 53%
    13:00 +11°C° 0.1 mm 1 mps 666 mmHg 52%
    14:00 +11°C° 0.1 mm 1 mps 666 mmHg 51%
    15:00 +12°C° 0.1 mm 1 mps 666 mmHg 50%
    16:00 +11°C° 0.1 mm 1 mps 666 mmHg 51%
    17:00 +11°C° 0.1 mm 1 mps 666 mmHg 52%
    18:00 +10°C° 0.1 mm 1 mps 666 mmHg 53%
    19:00 +9°C° 0 mm 2 mps 666 mmHg 56%
    20:00 +8°C° 0 mm 2 mps 667 mmHg 59%
    21:00 +7°C° 0 mm 2 mps 667 mmHg 61%
    22:00 +7°C° 0.1 mm 2 mps 667 mmHg 63%
    23:00 +6°C° 0.1 mm 2 mps 667 mmHg 64%

    27 March, Wednesday

    Time Temperature Precipitation Wind Pressure Humidity
    00:00 +6°C° 0.1 mm 2 mps 667 mmHg 65%
    01:00 +7°C° 0.1 mm 1 mps 667 mmHg 66%
    02:00 +6°C° 0.1 mm 1 mps 667 mmHg 67%
    03:00 +6°C° 0.1 mm 1 mps 667 mmHg 67%
    04:00 +6°C° 0 mm 1 mps 668 mmHg 68%
    05:00 +5°C° 0 mm 1 mps 668 mmHg 68%
    06:00 +5°C° 0 mm 1 mps 668 mmHg 69%
    07:00 +6°C° 0 mm 1 mps 668 mmHg 65%
    08:00 +7°C° 0 mm 1 mps 668 mmHg 62%
    09:00 +8°C° 0 mm 2 mps 669 mmHg 58%
    10:00 +8°C° 0 mm 2 mps 668 mmHg 56%
    11:00 +9°C° 0 mm 2 mps 668 mmHg 54%
    12:00 +10°C° 0 mm 3 mps 668 mmHg 52%
    13:00 +11°C° 0.1 mm 3 mps 668 mmHg 51%
    14:00 +12°C° 0.1 mm 2 mps 668 mmHg 50%
    15:00 +13°C° 0.1 mm 2 mps 667 mmHg 50%
    16:00 +12°C° 0.1 mm 2 mps 668 mmHg 51%
    17:00 +10°C° 0.1 mm 2 mps 668 mmHg 52%
    18:00 +10°C° 0.1 mm 2 mps 668 mmHg 53%
    19:00 +9°C° 0.1 mm 2 mps 669 mmHg 54%
    20:00 +8°C° 0.1 mm 2 mps 669 mmHg 56%
    21:00 +8°C° 0.1 mm 2 mps 670 mmHg 57%
    22:00 +7°C° 0.2 mm 2 mps 670 mmHg 58%
    23:00 +7°C° 0.2 mm 2 mps 670 mmHg 60%

    28 March, Thursday

    Time Temperature Precipitation Wind Pressure Humidity
    00:00 +7°C° 0.2 mm 2 mps 670 mmHg 61%
    01:00 +7°C° 0.1 mm 1 mps 670 mmHg 63%
    02:00 +7°C° 0.1 mm 1 mps 670 mmHg 65%
    03:00 +6°C° 0.1 mm 1 mps 669 mmHg 66%
    04:00 +6°C° 0.1 mm 1 mps 670 mmHg 68%
    05:00 +6°C° 0.1 mm 1 mps 670 mmHg 69%
    06:00 +6°C° 0.1 mm 1 mps 670 mmHg 70%
    07:00 +6°C° 0.1 mm 2 mps 670 mmHg 66%
    08:00 +7°C° 0.1 mm 2 mps 670 mmHg 62%
    09:00 +8°C° 0.1 mm 2 mps 670 mmHg 58%
    10:00 +8°C° 0.2 mm 2 mps 670 mmHg 57%
    11:00 +9°C° 0.2 mm 2 mps 670 mmHg 56%
    12:00 +9°C° 0.2 mm 3 mps 670 mmHg 55%
    13:00 +9°C° 0.3 mm 2 mps 669 mmHg 55%
    14:00 +10°C° 0.3 mm 2 mps 669 mmHg 55%
    15:00 +10°C° 0.3 mm 2 mps 669 mmHg 55%
    16:00 +9°C° 0.2 mm 2 mps 669 mmHg 56%
    17:00 +9°C° 0.2 mm 2 mps 669 mmHg 57%
    18:00 +9°C° 0.2 mm 2 mps 669 mmHg 57%
    19:00 +8°C° 0.1 mm 2 mps 669 mmHg 58%
    20:00 +7°C° 0.1 mm 2 mps 669 mmHg 59%
    21:00 +8°C° 0.1 mm 1 mps 669 mmHg 60%
    22:00 +7°C° 0.1 mm 1 mps 669 mmHg 60%
    23:00 +7°C° 0.1 mm 1 mps 669 mmHg 60%
    Show more